Hourly Weather Otopeni

Today, 24 July, Saturday

Time Temperature Precipitation Wind Pressure Humidity
00:00 +23°C° 0 mm 2 mps 753 mmHg 52%
01:00 +21°C° 0 mm 2 mps 753 mmHg 54%
02:00 +21°C° 0 mm 2 mps 753 mmHg 56%
03:00 +20°C° 0 mm 2 mps 753 mmHg 59%
04:00 +19°C° 0 mm 2 mps 753 mmHg 61%
05:00 +20°C° 0 mm 1 mps 753 mmHg 64%
06:00 +20°C° 0 mm 2 mps 753 mmHg 60%
07:00 +23°C° 0 mm 2 mps 754 mmHg 56%
08:00 +24°C° 0 mm 2 mps 754 mmHg 51%
09:00 +26°C° 0 mm 2 mps 754 mmHg 47%
10:00 +27°C° 0 mm 2 mps 754 mmHg 43%
11:00 +29°C° 0 mm 2 mps 754 mmHg 39%
12:00 +29°C° 0 mm 2 mps 753 mmHg 38%
13:00 +29°C° 0 mm 2 mps 753 mmHg 37%
14:00 +30°C° 0 mm 2 mps 753 mmHg 36%
15:00 +29°C° 0 mm 2 mps 753 mmHg 37%
16:00 +29°C° 0 mm 2 mps 753 mmHg 39%
17:00 +28°C° 0 mm 2 mps 753 mmHg 40%
18:00 +27°C° 0 mm 2 mps 753 mmHg 41%
19:00 +27°C° 0 mm 2 mps 753 mmHg 43%
20:00 +26°C° 0 mm 2 mps 753 mmHg 44%
21:00 +25°C° 0 mm 2 mps 754 mmHg 47%
22:00 +24°C° 0 mm 2 mps 754 mmHg 49%
23:00 +23°C° 0 mm 2 mps 754 mmHg 51%

Tomorrow, 25 July, Sunday

Time Temperature Precipitation Wind Pressure Humidity
00:00 +23°C° 0 mm 2 mps 754 mmHg 55%
01:00 +21°C° 0 mm 2 mps 754 mmHg 58%
02:00 +20°C° 0 mm 3 mps 754 mmHg 62%
03:00 +19°C° 0 mm 2 mps 754 mmHg 63%
04:00 +19°C° 0 mm 2 mps 754 mmHg 65%
05:00 +18°C° 0 mm 2 mps 754 mmHg 66%
06:00 +20°C° 0 mm 2 mps 755 mmHg 61%
07:00 +23°C° 0 mm 2 mps 755 mmHg 57%
08:00 +25°C° 0 mm 3 mps 755 mmHg 52%
09:00 +26°C° 0 mm 3 mps 755 mmHg 47%
10:00 +28°C° 0 mm 3 mps 755 mmHg 41%
11:00 +30°C° 0 mm 3 mps 755 mmHg 35%
12:00 +31°C° 0 mm 3 mps 755 mmHg 33%
13:00 +31°C° 0 mm 3 mps 755 mmHg 30%
14:00 +33°C° 0 mm 3 mps 754 mmHg 28%
15:00 +33°C° 0 mm 3 mps 754 mmHg 28%
16:00 +33°C° 0 mm 3 mps 754 mmHg 28%
17:00 +33°C° 0 mm 3 mps 754 mmHg 28%
18:00 +30°C° 0 mm 2 mps 754 mmHg 33%
19:00 +28°C° 0 mm 2 mps 754 mmHg 38%
20:00 +26°C° 0 mm 1 mps 754 mmHg 42%
21:00 +25°C° 0 mm 2 mps 755 mmHg 46%
22:00 +24°C° 0 mm 2 mps 755 mmHg 49%
23:00 +22°C° 0 mm 3 mps 755 mmHg 53%

Day after tomorrow, 26 July, Monday

Time Temperature Precipitation Wind Pressure Humidity
00:00 +21°C° 0 mm 2 mps 755 mmHg 56%
01:00 +21°C° 0 mm 2 mps 755 mmHg 59%
02:00 +20°C° 0 mm 2 mps 755 mmHg 62%
03:00 +20°C° 0 mm 2 mps 755 mmHg 64%
04:00 +19°C° 0 mm 2 mps 755 mmHg 66%
05:00 +19°C° 0 mm 2 mps 756 mmHg 68%
06:00 +21°C° 0 mm 2 mps 756 mmHg 62%
07:00 +23°C° 0 mm 2 mps 756 mmHg 57%
08:00 +25°C° 0 mm 2 mps 756 mmHg 52%
09:00 +27°C° 0 mm 2 mps 756 mmHg 45%
10:00 +29°C° 0 mm 2 mps 756 mmHg 39%
11:00 +31°C° 0 mm 2 mps 756 mmHg 32%
12:00 +32°C° 0 mm 2 mps 756 mmHg 30%
13:00 +32°C° 0 mm 2 mps 755 mmHg 27%
14:00 +34°C° 0 mm 2 mps 755 mmHg 25%
15:00 +34°C° 0 mm 2 mps 755 mmHg 25%
16:00 +35°C° 0 mm 2 mps 755 mmHg 24%
17:00 +35°C° 0 mm 2 mps 754 mmHg 24%
18:00 +32°C° 0 mm 2 mps 755 mmHg 27%
19:00 +30°C° 0 mm 2 mps 755 mmHg 31%
20:00 +28°C° 0 mm 2 mps 755 mmHg 34%
21:00 +27°C° 0 mm 2 mps 755 mmHg 37%
22:00 +26°C° 0 mm 2 mps 755 mmHg 41%
23:00 +25°C° 0 mm 2 mps 755 mmHg 44%

27 July, Tuesday

Time Temperature Precipitation Wind Pressure Humidity
00:00 +24°C° 0 mm 2 mps 755 mmHg 48%
01:00 +24°C° 0 mm 2 mps 755 mmHg 51%
02:00 +23°C° 0 mm 2 mps 755 mmHg 55%
03:00 +23°C° 0 mm 2 mps 755 mmHg 56%
04:00 +21°C° 0 mm 2 mps 756 mmHg 58%
05:00 +21°C° 0 mm 2 mps 756 mmHg 59%
06:00 +24°C° 0 mm 2 mps 756 mmHg 54%
07:00 +26°C° 0 mm 2 mps 756 mmHg 49%
08:00 +27°C° 0 mm 1 mps 756 mmHg 45%
09:00 +29°C° 0 mm 2 mps 756 mmHg 40%
10:00 +31°C° 0 mm 2 mps 756 mmHg 35%
11:00 +34°C° 0 mm 2 mps 756 mmHg 30%
12:00 +35°C° 0 mm 2 mps 755 mmHg 28%
13:00 +36°C° 0 mm 2 mps 755 mmHg 27%
14:00 +37°C° 0 mm 2 mps 755 mmHg 25%
15:00 +38°C° 0 mm 2 mps 754 mmHg 25%
16:00 +38°C° 0 mm 2 mps 754 mmHg 25%
17:00 +38°C° 0 mm 2 mps 754 mmHg 25%
18:00 +36°C° 0 mm 2 mps 754 mmHg 29%
19:00 +34°C° 0 mm 2 mps 754 mmHg 33%
20:00 +31°C° 0 mm 2 mps 753 mmHg 37%
21:00 +30°C° 0 mm 2 mps 754 mmHg 40%
22:00 +28°C° 0 mm 2 mps 754 mmHg 42%
23:00 +27°C° 0 mm 3 mps 754 mmHg 45%

28 July, Wednesday

Time Temperature Precipitation Wind Pressure Humidity
00:00 +26°C° 0 mm 2 mps 754 mmHg 47%
01:00 +25°C° 0 mm 2 mps 754 mmHg 50%
02:00 +24°C° 0 mm 2 mps 754 mmHg 52%
03:00 +24°C° 0 mm 2 mps 754 mmHg 53%
04:00 +24°C° 0 mm 2 mps 754 mmHg 54%
05:00 +23°C° 0 mm 2 mps 754 mmHg 55%
06:00 +25°C° 0 mm 2 mps 754 mmHg 50%
07:00 +27°C° 0 mm 1 mps 754 mmHg 45%
08:00 +29°C° 0 mm 1 mps 754 mmHg 41%
09:00 +32°C° 0 mm 1 mps 754 mmHg 36%
10:00 +34°C° 0 mm 1 mps 754 mmHg 32%
11:00 +36°C° 0 mm 1 mps 753 mmHg 27%
12:00 +37°C° 0 mm 1 mps 753 mmHg 25%
13:00 +40°C° 0 mm 1 mps 752 mmHg 23%
14:00 +41°C° 0 mm 2 mps 752 mmHg 21%
15:00 +41°C° 0 mm 2 mps 752 mmHg 21%
16:00 +41°C° 0 mm 2 mps 751 mmHg 21%
17:00 +41°C° 0 mm 2 mps 751 mmHg 20%
18:00 +37°C° 0.3 mm 4 mps 751 mmHg 34%
19:00 +32°C° 0.3 mm 7 mps 752 mmHg 48%
20:00 +27°C° 0.3 mm 9 mps 753 mmHg 62%
21:00 +26°C° 0.2 mm 7 mps 753 mmHg 62%
22:00 +26°C° 0.2 mm 5 mps 752 mmHg 62%
23:00 +25°C° 0.2 mm 2 mps 752 mmHg 62%

29 July, Thursday

Time Temperature Precipitation Wind Pressure Humidity
00:00 +25°C° 0 mm 2 mps 752 mmHg 63%
01:00 +25°C° 0 mm 1 mps 752 mmHg 64%
02:00 +24°C° 0 mm 1 mps 752 mmHg 65%
03:00 +24°C° 0 mm 1 mps 752 mmHg 65%
04:00 +24°C° 0 mm 2 mps 752 mmHg 65%
05:00 +24°C° 0 mm 2 mps 752 mmHg 65%
06:00 +26°C° 0 mm 2 mps 752 mmHg 59%
07:00 +28°C° 0 mm 1 mps 752 mmHg 52%
08:00 +30°C° 0 mm 1 mps 752 mmHg 45%
09:00 +32°C° 0 mm 2 mps 752 mmHg 40%
10:00 +35°C° 0 mm 2 mps 752 mmHg 34%
11:00 +38°C° 0 mm 3 mps 751 mmHg 29%
12:00 +39°C° 0 mm 3 mps 751 mmHg 26%
13:00 +40°C° 0 mm 3 mps 750 mmHg 23%
14:00 +43°C° 0 mm 4 mps 750 mmHg 21%
15:00 +40°C° 0.1 mm 5 mps 750 mmHg 26%
16:00 +36°C° 0.1 mm 6 mps 750 mmHg 32%
17:00 +33°C° 0.1 mm 8 mps 750 mmHg 38%
18:00 +30°C° 0.2 mm 6 mps 750 mmHg 45%
19:00 +29°C° 0.2 mm 5 mps 750 mmHg 52%
20:00 +27°C° 0.2 mm 3 mps 750 mmHg 59%
21:00 +27°C° 0 mm 3 mps 750 mmHg 59%
22:00 +26°C° 0 mm 3 mps 750 mmHg 59%
23:00 +26°C° 0 mm 2 mps 750 mmHg 59%
Show more